| time (UTC) | temp F | wind direction | speed knots | gust knots | rain 1hr in | rain 24hr in | rain mn in | humidity % | barometer mb |
| 20260503224912 | 65 | 242 | 7.8 | 9.6 | 0.00 | 0.00 | 0.00 | 51 | 1017.1 |
| 20260503224409 | 66 | 221 | 3.5 | 8.7 | 0.00 | 0.00 | 0.00 | 51 | 1017.1 |
| 20260503223907 | 65 | 162 | 1.7 | 7.8 | 0.00 | 0.00 | 0.00 | 51 | 1017.0 |
| 20260503223405 | 65 | 132 | 1.7 | 7.8 | 0.00 | 0.00 | 0.00 | 49 | 1017.2 |
| 20260503222859 | 65 | 248 | 6.1 | 7.0 | 0.00 | 0.00 | 0.00 | 50 | 1017.2 |
| 20260503222358 | 66 | 246 | 2.6 | 6.1 | 0.00 | 0.00 | 0.00 | 50 | 1017.0 |
| 20260503221856 | 66 | 224 | 5.2 | 7.0 | 0.00 | 0.00 | 0.00 | 51 | 1017.2 |
| 20260503221355 | 67 | 234 | 2.6 | 5.2 | 0.00 | 0.00 | 0.00 | 49 | 1017.4 |
| 20260503220850 | 66 | 194 | 5.2 | 7.0 | 0.00 | 0.00 | 0.00 | 51 | 1017.3 |
| 20260503220347 | 66 | 231 | 4.3 | 7.0 | 0.00 | 0.00 | 0.00 | 50 | 1017.3 |
| 20260503215844 | 66 | 233 | 4.3 | 8.7 | 0.00 | 0.00 | 0.00 | 49 | 1017.3 |
| 20260503215341 | 66 | 188 | 3.5 | 7.0 | 0.00 | 0.00 | 0.00 | 49 | 1017.4 |
| 20260503214839 | 65 | 201 | 5.2 | 7.0 | 0.00 | 0.00 | 0.00 | 52 | 1017.3 |
| 20260503214336 | 67 | 256 | 7.8 | 13.0 | 0.00 | 0.00 | 0.00 | 48 | 1017.5 |
| 20260503213833 | 65 | 260 | 1.7 | 2.6 | 0.00 | 0.00 | 0.00 | 53 | 1017.6 |
| 20260503213331 | 64 | 282 | 4.3 | 8.7 | 0.00 | 0.00 | 0.00 | 53 | 1017.5 |
| 20260503212828 | 64 | 229 | 6.1 | 8.7 | 0.00 | 0.00 | 0.00 | 56 | 1017.4 |
| 20260503212326 | 66 | 224 | 8.7 | 9.6 | 0.00 | 0.00 | 0.00 | 55 | 1017.2 |
| 20260503211823 | 64 | 229 | 1.7 | 7.0 | 0.00 | 0.00 | 0.00 | 58 | 1017.6 |
| 20260503211319 | 64 | 188 | 6.1 | 7.8 | 0.00 | 0.00 | 0.00 | 58 | 1017.4 |
| 20260503210819 | 64 | 181 | 7.0 | 8.7 | 0.00 | 0.00 | 0.00 | 56 | 1017.7 |
| 20260503210317 | 65 | 205 | 5.2 | 8.7 | 0.00 | 0.00 | 0.00 | 55 | 1017.7 |
| 20260503205812 | 66 | 198 | 5.2 | 8.7 | 0.00 | 0.00 | 0.00 | 55 | 1017.5 |
| 20260503205309 | 65 | 257 | 2.6 | 5.2 | 0.00 | 0.00 | 0.00 | 56 | 1017.4 |
| 20260503204805 | 65 | 229 | 6.1 | 8.7 | 0.00 | 0.00 | 0.00 | 55 | 1017.4 |
| 20260503204303 | 64 | 205 | 3.5 | 7.8 | 0.00 | 0.00 | 0.00 | 58 | 1017.6 |
| 20260503203800 | 64 | 186 | 3.5 | 7.8 | 0.00 | 0.00 | 0.00 | 60 | 1017.8 |
| 20260503203257 | 64 | 237 | 6.1 | 7.8 | 0.00 | 0.00 | 0.00 | 58 | 1017.9 |
| 20260503202754 | 63 | 163 | 1.7 | 12.2 | 0.00 | 0.00 | 0.00 | 61 | 1017.9 |
| 20260503202252 | 65 | 219 | 6.1 | 12.2 | 0.00 | 0.00 | 0.00 | 57 | 1017.7 |
| 20260503201750 | 64 | 217 | 1.7 | 6.1 | 0.00 | 0.00 | 0.00 | 62 | 1017.8 |
| 20260503201247 | 63 | 209 | 3.5 | 11.3 | 0.00 | 0.00 | 0.00 | 62 | 1017.8 |
| 20260503200744 | 63 | 230 | 7.8 | 8.7 | 0.00 | 0.00 | 0.00 | 60 | 1017.7 |
| 20260503200240 | 64 | 222 | 7.0 | 9.6 | 0.00 | 0.00 | 0.00 | 55 | 1017.8 |
| 20260503195737 | 64 | 198 | 3.5 | 7.8 | 0.00 | 0.00 | 0.00 | 59 | 1017.9 |
| 20260503195234 | 64 | 199 | 7.8 | 9.6 | 0.00 | 0.00 | 0.00 | 57 | 1017.8 |
| 20260503194732 | 64 | 159 | 5.2 | 8.7 | 0.00 | 0.00 | 0.00 | 57 | 1017.9 |
| 20260503194227 | 64 | 191 | 5.2 | 9.6 | 0.00 | 0.00 | 0.00 | 57 | 1018.0 |
| 20260503193723 | 63 | 196 | 4.3 | 9.6 | 0.00 | 0.00 | 0.00 | 57 | 1017.9 |
| 20260503193219 | 64 | 210 | 6.1 | 9.6 | 0.00 | 0.00 | 0.00 | 56 | 1017.6 |
| 20260503192715 | 63 | 207 | 3.5 | 7.8 | 0.00 | 0.00 | 0.00 | 54 | 1017.8 |
| 20260503192211 | 64 | 242 | 5.2 | 8.7 | 0.00 | 0.00 | 0.00 | 52 | 1018.0 |
| 20260503191708 | 64 | 205 | 4.3 | 7.0 | 0.00 | 0.00 | 0.00 | 54 | 1017.6 |
| 20260503191205 | 64 | 293 | 6.1 | 8.7 | 0.00 | 0.00 | 0.00 | 53 | 1018.0 |
| 20260503190701 | 65 | 180 | 4.3 | 5.2 | 0.00 | 0.00 | 0.00 | 50 | 1017.9 |
| 20260503190158 | 65 | 204 | 3.5 | 5.2 | 0.00 | 0.00 | 0.00 | 51 | 1017.8 |
| 20260503185655 | 64 | 195 | 3.5 | 7.0 | 0.00 | 0.00 | 0.00 | 51 | 1017.8 |
| 20260503185150 | 65 | 83 | 2.6 | 5.2 | 0.00 | 0.00 | 0.00 | 51 | 1018.0 |
| 20260503184645 | 64 | 168 | 1.7 | 4.3 | 0.00 | 0.00 | 0.00 | 50 | 1017.9 |
| 20260503184142 | 64 | 241 | 5.2 | 7.0 | 0.00 | 0.00 | 0.00 | 51 | 1018.1 |
| 20260503183638 | 64 | 186 | 0.9 | 4.3 | 0.00 | 0.00 | 0.00 | 50 | 1018.1 |
| 20260503183136 | 64 | 219 | 2.6 | 4.3 | 0.00 | 0.00 | 0.00 | 50 | 1018.2 |
| 20260503182634 | 64 | 227 | 4.3 | 5.2 | 0.00 | 0.00 | 0.00 | 49 | 1018.0 |
| 20260503182132 | 63 | 217 | 3.5 | 5.2 | 0.00 | 0.00 | 0.00 | 51 | 1018.2 |
| 20260503181629 | 63 | 140 | 0.9 | 2.6 | 0.00 | 0.00 | 0.00 | 53 | 1018.1 |
| 20260503181126 | 62 | 185 | 1.7 | 4.3 | 0.00 | 0.00 | 0.00 | 52 | 1018.1 |
| 20260503180622 | 62 | 214 | 2.6 | 6.1 | 0.00 | 0.00 | 0.00 | 53 | 1018.3 |
| 20260503180120 | 62 | 212 | 3.5 | 4.3 | 0.00 | 0.00 | 0.00 | 53 | 1018.2 |
| 20260503175617 | 62 | 164 | 1.7 | 2.6 | 0.00 | 0.00 | 0.00 | 55 | 1018.1 |
| 20260503175114 | 62 | 244 | 2.6 | 4.3 | 0.00 | 0.00 | 0.00 | 55 | 1018.1 |
| 20260503174611 | 62 | 155 | 0.9 | 4.3 | 0.00 | 0.00 | 0.00 | 54 | 1018.2 |
| 20260503174108 | 61 | 283 | 2.6 | 5.2 | 0.00 | 0.00 | 0.00 | 56 | 1018.1 |
| 20260503173603 | 61 | 207 | 2.6 | 5.2 | 0.00 | 0.00 | 0.00 | 56 | 1018.4 |
| 20260503173100 | 61 | 211 | 2.6 | 6.1 | 0.00 | 0.00 | 0.00 | 57 | 1018.1 |
| 20260503172556 | 60 | 120 | 0.0 | 7.8 | 0.00 | 0.00 | 0.00 | 60 | 1018.2 |
| 20260503172054 | 61 | 164 | 0.9 | 4.3 | 0.00 | 0.00 | 0.00 | 60 | 1018.1 |
| 20260503171550 | 60 | 88 | 0.9 | 5.2 | 0.00 | 0.00 | 0.00 | 61 | 1018.3 |
| 20260503171048 | 60 | 187 | 3.5 | 7.8 | 0.00 | 0.00 | 0.00 | 62 | 1018.1 |
| 20260503170544 | 60 | 157 | 0.9 | 2.6 | 0.00 | 0.00 | 0.00 | 64 | 1018.0 |
| 20260503150937 | 57 | 276 | 2.6 | 2.6 | 0.00 | 0.00 | 0.00 | 76 | 1017.3 |
| 20260503150433 | 57 | 229 | 2.6 | 4.3 | 0.00 | 0.00 | 0.00 | 78 | 1017.2 |
| 20260503131326 | 55 | 36 | 0.0 | 0.0 | 0.00 | 0.00 | 0.00 | 86 | 1016.4 |
| 20260503130824 | 55 | 37 | 0.0 | 0.0 | 0.00 | 0.00 | 0.00 | 86 | 1016.3 |
| 20260503130321 | 55 | 36 | 0.0 | 0.0 | 0.00 | 0.00 | 0.00 | 86 | 1016.3 |
| 20260503110714 | 54 | 37 | 0.0 | 0.0 | 0.00 | 0.00 | 0.00 | 85 | 1016.2 |
| 20260503110212 | 55 | 37 | 0.0 | 0.0 | 0.00 | 0.00 | 0.00 | 85 | 1016.2 |
| 20260503100138 | 55 | 37 | 0.0 | 0.0 | 0.00 | 0.00 | 0.00 | 83 | 1015.9 |
| 20260503081533 | 56 | 37 | 0.0 | 1.7 | 0.00 | 0.00 | 0.00 | 83 | 1016.7 |
| 20260503081030 | 56 | 19 | 2.6 | 2.6 | 0.00 | 0.00 | 0.00 | 82 | 1016.7 |
| 20260503080526 | 56 | 53 | 0.0 | 0.0 | 0.00 | 0.00 | 0.00 | 83 | 1016.7 |
| 20260503072500 | 56 | 169 | 0.9 | 0.9 | 0.00 | 0.00 | 0.00 | 81 | 1016.7 |
| 20260503071957 | 56 | 164 | 0.0 | 0.0 | 0.00 | 0.00 | 0.00 | 81 | 1016.4 |
| 20260503071453 | 56 | 42 | 0.9 | 0.9 | 0.00 | 0.00 | 0.00 | 82 | 1016.5 |
| 20260503070950 | 56 | 43 | 0.0 | 0.0 | 0.00 | 0.00 | 0.00 | 81 | 1016.3 |
| 20260503070447 | 56 | 43 | 0.0 | 0.0 | 0.00 | 0.00 | 0.00 | 81 | 1016.4 |
| 20260503054900 | 55 | 35 | 0.9 | 0.9 | 0.00 | 0.00 | 0.00 | 83 | 1015.9 |
| 20260503054356 | 55 | 36 | 0.9 | 0.9 | 0.00 | 0.00 | 0.00 | 83 | 1016.0 |
| 20260503053854 | 55 | 35 | 0.0 | 2.6 | 0.00 | 0.00 | 0.00 | 83 | 1015.9 |
| 20260503053352 | 55 | 43 | 0.0 | 0.0 | 0.00 | 0.00 | 0.00 | 84 | 1016.2 |
| 20260503052848 | 55 | 43 | 0.0 | 0.0 | 0.00 | 0.00 | 0.00 | 84 | 1016.1 |
| 20260503052345 | 55 | 48 | 0.0 | 0.0 | 0.00 | 0.00 | 0.00 | 85 | 1016.0 |
| 20260503051841 | 54 | 70 | 0.0 | 0.0 | 0.00 | 0.00 | 0.00 | 86 | 1015.9 |
| 20260503051338 | 54 | 71 | 0.0 | 0.0 | 0.00 | 0.00 | 0.00 | 86 | 1015.9 |
| 20260503050835 | 54 | 71 | 0.0 | 0.0 | 0.00 | 0.00 | 0.00 | 88 | 1015.9 |
| 20260503050331 | 53 | 71 | 0.0 | 0.0 | 0.00 | 0.00 | 0.00 | 88 | 1015.8 |
| 20260503045829 | 53 | 84 | 0.0 | 0.0 | 0.00 | 0.00 | 0.00 | 88 | 1015.7 |
| 20260503045326 | 53 | 84 | 0.0 | 0.0 | 0.00 | 0.00 | 0.00 | 88 | 1015.8 |
| 20260503044822 | 53 | 84 | 0.0 | 0.0 | 0.00 | 0.00 | 0.00 | 88 | 1015.6 |
| 20260503044320 | 53 | 84 | 0.0 | 0.0 | 0.00 | 0.00 | 0.00 | 88 | 1015.5 |
| 20260503043817 | 53 | 106 | 0.0 | 0.0 | 0.00 | 0.00 | 0.00 | 88 | 1015.6 |
| 20260503043314 | 54 | 49 | 0.0 | 0.0 | 0.00 | 0.00 | 0.00 | 87 | 1015.7 |
| 20260503042809 | 54 | 49 | 0.0 | 0.0 | 0.00 | 0.00 | 0.00 | 87 | 1015.7 |
| 20260503042307 | 54 | 50 | 0.0 | 0.0 | 0.00 | 0.00 | 0.00 | 87 | 1015.6 |
| 20260503041802 | 54 | 50 | 0.0 | 0.0 | 0.00 | 0.00 | 0.00 | 86 | 1015.8 |
| 20260503041300 | 54 | 49 | 0.0 | 0.0 | 0.00 | 0.00 | 0.00 | 86 | 1015.5 |
| 20260503040758 | 54 | 50 | 0.0 | 0.0 | 0.00 | 0.00 | 0.00 | 87 | 1015.7 |
| 20260503040255 | 54 | 50 | 0.0 | 0.0 | 0.00 | 0.00 | 0.00 | 86 | 1015.7 |
| 20260503035752 | 54 | 50 | 0.0 | 0.0 | 0.00 | 0.00 | 0.00 | 85 | 1015.6 |
| 20260503035249 | 54 | 50 | 0.0 | 0.0 | 0.00 | 0.00 | 0.00 | 85 | 1015.5 |
| 20260503034746 | 55 | 50 | 0.0 | 0.0 | 0.00 | 0.00 | 0.00 | 84 | 1015.5 |
| 20260503034243 | 55 | 49 | 0.9 | 1.7 | 0.00 | 0.00 | 0.00 | 84 | 1015.5 |
| 20260503033741 | 55 | 63 | 0.0 | 0.0 | 0.00 | 0.00 | 0.00 | 83 | 1015.3 |
| 20260503033238 | 55 | 57 | 0.0 | 0.9 | 0.00 | 0.00 | 0.00 | 83 | 1015.4 |
| 20260503032736 | 55 | 41 | 0.0 | 0.0 | 0.00 | 0.00 | 0.00 | 83 | 1015.5 |
| 20260503032235 | 55 | 43 | 0.0 | 0.9 | 0.00 | 0.00 | 0.00 | 83 | 1015.5 |
| 20260503031731 | 55 | 104 | 0.9 | 0.9 | 0.00 | 0.00 | 0.00 | 84 | 1015.3 |
| 20260503031229 | 56 | 177 | 0.0 | 1.7 | 0.00 | 0.00 | 0.00 | 84 | 1015.7 |
| 20260503030725 | 56 | 173 | 0.0 | 0.0 | 0.00 | 0.00 | 0.00 | 83 | 1015.2 |
| 20260503030222 | 56 | 173 | 0.0 | 0.0 | 0.00 | 0.00 | 0.00 | 82 | 1015.3 |
| 20260503025719 | 57 | 173 | 0.0 | 0.0 | 0.00 | 0.00 | 0.00 | 81 | 1015.1 |
| 20260503025217 | 57 | 173 | 0.0 | 0.9 | 0.00 | 0.00 | 0.00 | 81 | 1014.9 |
| 20260503024713 | 57 | 262 | 1.7 | 2.6 | 0.00 | 0.00 | 0.00 | 81 | 1015.1 |
| 20260503024210 | 57 | 180 | 0.0 | 0.9 | 0.00 | 0.00 | 0.00 | 80 | 1014.8 |
| 20260503023707 | 57 | 211 | 2.6 | 4.3 | 0.00 | 0.00 | 0.00 | 80 | 1014.6 |
| 20260503023204 | 58 | 206 | 1.7 | 2.6 | 0.00 | 0.00 | 0.00 | 79 | 1014.6 |
| 20260503022700 | 58 | 201 | 2.6 | 2.6 | 0.00 | 0.00 | 0.00 | 78 | 1014.9 |
| 20260503022159 | 58 | 156 | 0.9 | 4.3 | 0.00 | 0.00 | 0.00 | 78 | 1015.1 |
| 20260503021657 | 58 | 211 | 2.6 | 6.1 | 0.00 | 0.00 | 0.00 | 77 | 1014.8 |
| 20260503021153 | 59 | 231 | 2.6 | 6.1 | 0.00 | 0.00 | 0.00 | 76 | 1015.0 |
| 20260503020650 | 59 | 185 | 2.6 | 2.6 | 0.00 | 0.00 | 0.00 | 75 | 1014.9 |
| 20260503020148 | 59 | 181 | 0.9 | 2.6 | 0.00 | 0.00 | 0.00 | 74 | 1014.9 |
| 20260503015644 | 59 | 232 | 1.7 | 2.6 | 0.00 | 0.00 | 0.00 | 74 | 1015.0 |
| 20260503015141 | 59 | 198 | 1.7 | 4.3 | 0.00 | 0.00 | 0.00 | 73 | 1014.9 |
| 20260503014637 | 59 | 247 | 4.3 | 6.1 | 0.00 | 0.00 | 0.00 | 72 | 1014.9 |
| 20260503014135 | 60 | 229 | 1.7 | 5.2 | 0.00 | 0.00 | 0.00 | 70 | 1015.1 |
| 20260503013632 | 60 | 205 | 2.6 | 2.6 | 0.00 | 0.00 | 0.00 | 70 | 1014.9 |
| 20260503013130 | 61 | 182 | 4.3 | 7.0 | 0.00 | 0.00 | 0.00 | 69 | 1014.9 |
| 20260503012627 | 61 | 257 | 2.6 | 5.2 | 0.00 | 0.00 | 0.00 | 69 | 1015.1 |
| 20260503012124 | 61 | 281 | 3.5 | 5.2 | 0.00 | 0.00 | 0.00 | 68 | 1015.2 |
| 20260503011620 | 61 | 224 | 1.7 | 5.2 | 0.00 | 0.00 | 0.00 | 69 | 1015.1 |
| 20260503011118 | 62 | 218 | 6.1 | 8.7 | 0.00 | 0.00 | 0.00 | 68 | 1015.0 |
| 20260503010614 | 63 | 211 | 2.6 | 6.1 | 0.00 | 0.00 | 0.00 | 66 | 1015.1 |
| 20260503010111 | 62 | 245 | 1.7 | 2.6 | 0.00 | 0.00 | 0.00 | 67 | 1015.2 |
| 20260503005608 | 63 | 251 | 5.2 | 6.1 | 0.00 | 0.00 | 0.00 | 65 | 1015.2 |
| 20260503005106 | 62 | 196 | 1.7 | 4.3 | 0.00 | 0.00 | 0.00 | 66 | 1015.2 |
| 20260503004601 | 62 | 216 | 3.5 | 7.8 | 0.00 | 0.00 | 0.00 | 67 | 1015.3 |
| 20260503004100 | 62 | 181 | 4.3 | 7.8 | 0.00 | 0.00 | 0.00 | 66 | 1015.1 |
| 20260503003556 | 63 | 212 | 5.2 | 7.8 | 0.00 | 0.00 | 0.00 | 65 | 1015.0 |
| 20260503003053 | 62 | 209 | 4.3 | 8.7 | 0.00 | 0.00 | 0.00 | 66 | 1015.4 |
| 20260503002550 | 63 | 199 | 5.2 | 8.7 | 0.00 | 0.00 | 0.00 | 66 | 1015.0 |
| 20260503002047 | 63 | 201 | 2.6 | 5.2 | 0.00 | 0.00 | 0.00 | 65 | 1015.2 |
| 20260503001543 | 63 | 246 | 2.6 | 7.8 | 0.00 | 0.00 | 0.00 | 66 | 1015.0 |
| 20260503001041 | 64 | 201 | 4.3 | 8.7 | 0.00 | 0.00 | 0.00 | 64 | 1015.0 |
| 20260503000538 | 64 | 226 | 4.3 | 7.8 | 0.00 | 0.00 | 0.00 | 63 | 1015.2 |
| 20260503000035 | 64 | 224 | 1.7 | 6.1 | 0.00 | 0.00 | 0.00 | 63 | 1015.1 |
| 20260502235531 | 64 | 220 | 5.2 | 7.0 | 0.00 | 0.00 | 0.00 | 65 | 1015.1 |
| 20260502235030 | 64 | 177 | 0.9 | 7.8 | 0.00 | 0.00 | 0.00 | 64 | 1015.4 |
| 20260502234525 | 63 | 240 | 4.3 | 6.1 | 0.00 | 0.00 | 0.00 | 65 | 1015.4 |
| 20260502234023 | 64 | 222 | 6.1 | 7.8 | 0.00 | 0.00 | 0.00 | 63 | 1015.2 |
| 20260502233518 | 64 | 187 | 4.3 | 7.0 | 0.00 | 0.00 | 0.00 | 62 | 1015.4 |
| 20260502233015 | 64 | 195 | 3.5 | 7.0 | 0.00 | 0.00 | 0.00 | 63 | 1015.4 |
| 20260502232512 | 64 | 229 | 5.2 | 7.8 | 0.00 | 0.00 | 0.00 | 64 | 1015.5 |
| 20260502232009 | 64 | 325 | 5.2 | 6.1 | 0.00 | 0.00 | 0.00 | 64 | 1015.6 |
| 20260502231506 | 65 | 182 | 3.5 | 6.1 | 0.00 | 0.00 | 0.00 | 63 | 1015.6 |
| 20260502231004 | 65 | 235 | 1.7 | 7.0 | 0.00 | 0.00 | 0.00 | 62 | 1015.5 |
| 20260502230502 | 64 | 193 | 3.5 | 6.1 | 0.00 | 0.00 | 0.00 | 63 | 1015.7 |
| 20260502230000 | 64 | 211 | 2.6 | 7.8 | 0.00 | 0.00 | 0.00 | 63 | 1015.7 |
| 20260502225455 | 65 | 222 | 5.2 | 7.8 | 0.00 | 0.00 | 0.00 | 62 | 1016.0 |